Total_Precipitation_Accumulation
0.46 0.59 0.50 0.32 0.29 0.27 0.23 0.26 0.21 0.12 0.10 0.16 0.16 0.10 0.04 0.03 0.03 0.03 0.02 0.02 0.02 0.03 0.03 0.04 0.07 0.09 0.13 0.19 0.23 0.25 0.24 0.26 0.32 0.32 0.28 0.24 0.18 0.13 0.10 0.08 0.07 0.06 0.07 0.08
0.60 0.54 0.28 0.20 0.22 0.28 0.31 0.33 0.25 0.17 0.13 0.22 0.20 0.10 0.04 0.03 0.03 0.03 0.02 0.02 0.02 0.01 0.02 0.03 0.05 0.08 0.11 0.15 0.20 0.23 0.25 0.26 0.29 0.30 0.24 0.19 0.15 0.12 0.09 0.07 0.07 0.06 0.07 0.08
0.45 0.30 0.16 0.25 0.32 0.40 0.38 0.31 0.21 0.19 0.18 0.23 0.26 0.17 0.04 0.02 0.01 0.01 0.02 0.02 0.02 0.01 0.01 0.02 0.04 0.07 0.09 0.12 0.16 0.18 0.22 0.25 0.28 0.33 0.31 0.26 0.24 0.20 0.14 0.09 0.09 0.07 0.06 0.07
0.34 0.19 0.20 0.30 0.34 0.40 0.40 0.21 0.19 0.22 0.35 0.38 0.30 0.30 0.05 0.02 0.01 0.01 0.01 0.02 0.02 0.02 0.01 0.01 0.02 0.06 0.07 0.09 0.13 0.17 0.21 0.25 0.26 0.35 0.37 0.27 0.22 0.20 0.13 0.07 0.06 0.07 0.08 0.07
0.44 0.23 0.25 0.33 0.24 0.27 0.31 0.20 0.24 0.31 0.43 0.49 0.35 0.34 0.10 0.02 0.02 0.01 0.01 0.01 0.01 0.01 0.01 0.00 0.01 0.03 0.05 0.08 0.12 0.16 0.20 0.28 0.27 0.31 0.37 0.30 0.21 0.17 0.13 0.09 0.06 0.07 0.09 0.09
0.41 0.27 0.30 0.26 0.18 0.21 0.30 0.37 0.41 0.47 0.71 0.87 0.32 0.26 0.14 0.06 0.06 0.02 0.01 0.01 0.01 0.01 0.01 0.00 0.00 0.02 0.05 0.07 0.12 0.16 0.19 0.26 0.28 0.27 0.31 0.33 0.25 0.19 0.16 0.12 0.07 0.07 0.09 0.10
0.51 0.35 0.29 0.25 0.29 0.35 0.50 0.77 1.11 1.13 1.16 0.72 0.13 0.14 0.13 0.08 0.06 0.05 0.03 0.02 0.02 0.01 0.01 0.01 0.01 0.01 0.03 0.06 0.10 0.15 0.18 0.21 0.24 0.24 0.26 0.26 0.28 0.24 0.18 0.14 0.09 0.07 0.08 0.09
0.55 0.40 0.32 0.30 0.32 0.44 0.53 0.70 0.90 0.82 0.53 0.19 0.06 0.10 0.09 0.06 0.04 0.04 0.03 0.02 0.01 0.01 0.01 0.01 0.01 0.02 0.02 0.04 0.08 0.12 0.15 0.17 0.19 0.20 0.21 0.20 0.25 0.30 0.23 0.17 0.13 0.10 0.09 0.07
0.59 0.36 0.21 0.23 0.23 0.33 0.50 0.53 0.45 0.55 0.41 0.25 0.15 0.09 0.07 0.03 0.03 0.03 0.02 0.02 0.02 0.02 0.01 0.01 0.01 0.02 0.02 0.03 0.06 0.10 0.12 0.14 0.15 0.17 0.19 0.19 0.19 0.25 0.27 0.21 0.15 0.13 0.10 0.08
0.62 0.46 0.20 0.19 0.30 0.39 0.43 0.50 0.62 0.86 0.70 0.36 0.17 0.11 0.13 0.08 0.06 0.04 0.04 0.03 0.02 0.02 0.02 0.02 0.01 0.02 0.02 0.02 0.04 0.08 0.12 0.12 0.11 0.13 0.18 0.19 0.17 0.18 0.23 0.25 0.19 0.13 0.11 0.10
0.62 0.60 0.35 0.31 0.47 0.55 0.54 0.68 0.85 0.85 0.57 0.38 0.22 0.18 0.20 0.14 0.11 0.09 0.07 0.05 0.03 0.03 0.03 0.03 0.03 0.03 0.03 0.03 0.03 0.07 0.12 0.11 0.10 0.11 0.13 0.17 0.17 0.18 0.22 0.24 0.20 0.14 0.10 0.09
0.57 0.70 0.46 0.29 0.30 0.33 0.47 0.60 0.74 0.85 0.58 0.28 0.22 0.19 0.17 0.13 0.11 0.10 0.08 0.05 0.03 0.02 0.02 0.02 0.02 0.03 0.04 0.04 0.04 0.07 0.11 0.10 0.08 0.10 0.12 0.13 0.15 0.16 0.21 0.23 0.22 0.18 0.13 0.09
0.79 1.02 0.82 0.54 0.47 0.47 0.56 0.51 0.55 0.61 0.49 0.28 0.18 0.12 0.09 0.08 0.07 0.08 0.08 0.06 0.04 0.02 0.02 0.02 0.02 0.02 0.03 0.03 0.03 0.06 0.09 0.08 0.07 0.10 0.12 0.13 0.15 0.15 0.14 0.17 0.21 0.21 0.16 0.11
0.92 1.00 0.74 0.62 0.52 0.49 0.49 0.41 0.38 0.54 0.58 0.29 0.12 0.08 0.06 0.08 0.08 0.08 0.08 0.07 0.06 0.04 0.03 0.03 0.03 0.02 0.03 0.02 0.02 0.03 0.06 0.07 0.08 0.10 0.11 0.12 0.12 0.13 0.12 0.12 0.14 0.16 0.16 0.13
0.70 0.69 0.35 0.19 0.17 0.23 0.25 0.23 0.26 0.33 0.30 0.21 0.10 0.09 0.09 0.10 0.11 0.12 0.11 0.09 0.08 0.06 0.05 0.04 0.04 0.03 0.03 0.03 0.02 0.02 0.03 0.05 0.07 0.09 0.09 0.09 0.10 0.13 0.14 0.12 0.11 0.11 0.12 0.12
0.63 0.59 0.29 0.16 0.12 0.16 0.19 0.16 0.17 0.18 0.13 0.10 0.08 0.09 0.11 0.12 0.12 0.12 0.11 0.10 0.10 0.07 0.06 0.05 0.04 0.03 0.03 0.03 0.03 0.02 0.02 0.03 0.05 0.06 0.07 0.08 0.10 0.14 0.15 0.14 0.12 0.10 0.10 0.10
0.61 0.59 0.46 0.26 0.14 0.26 0.28 0.17 0.15 0.15 0.12 0.11 0.12 0.12 0.12 0.13 0.13 0.13 0.12 0.10 0.09 0.07 0.06 0.05 0.05 0.04 0.03 0.03 0.03 0.02 0.01 0.02 0.03 0.05 0.07 0.10 0.10 0.11 0.15 0.17 0.15 0.12 0.11 0.11
0.42 0.52 0.59 0.36 0.34 0.55 0.28 0.13 0.12 0.14 0.14 0.12 0.11 0.09 0.10 0.13 0.15 0.16 0.14 0.12 0.09 0.07 0.07 0.05 0.04 0.05 0.04 0.03 0.02 0.02 0.02 0.02 0.03 0.05 0.07 0.08 0.09 0.09 0.14 0.18 0.17 0.15 0.13 0.12
0.18 0.42 0.62 0.48 0.42 0.25 0.15 0.15 0.18 0.23 0.23 0.15 0.10 0.06 0.05 0.09 0.13 0.17 0.13 0.11 0.09 0.08 0.08 0.07 0.06 0.05 0.05 0.04 0.03 0.02 0.02 0.02 0.03 0.04 0.05 0.05 0.08 0.08 0.11 0.15 0.15 0.15 0.14 0.13
0.19 0.38 0.64 0.51 0.40 0.21 0.16 0.13 0.15 0.23 0.30 0.16 0.10 0.08 0.07 0.09 0.16 0.18 0.14 0.11 0.09 0.07 0.07 0.07 0.07 0.07 0.07 0.05 0.04 0.03 0.02 0.02 0.03 0.02 0.03 0.04 0.06 0.07 0.09 0.11 0.14 0.14 0.14 0.14
0.51 0.68 0.68 0.45 0.31 0.12 0.12 0.14 0.17 0.33 0.37 0.17 0.11 0.09 0.09 0.11 0.13 0.13 0.13 0.12 0.10 0.07 0.07 0.06 0.07 0.08 0.08 0.07 0.05 0.04 0.03 0.02 0.02 0.02 0.03 0.05 0.07 0.07 0.09 0.12 0.13 0.14 0.13 0.14
0.48 0.62 0.54 0.41 0.33 0.15 0.14 0.21 0.34 0.37 0.19 0.12 0.10 0.08 0.06 0.06 0.05 0.06 0.09 0.11 0.11 0.08 0.07 0.08 0.07 0.07 0.07 0.07 0.07 0.05 0.04 0.03 0.03 0.03 0.05 0.06 0.08 0.08 0.10 0.11 0.11 0.12 0.14 0.14
0.28 0.39 0.45 0.38 0.21 0.12 0.13 0.20 0.23 0.17 0.14 0.10 0.08 0.06 0.04 0.04 0.03 0.05 0.08 0.10 0.11 0.10 0.09 0.10 0.09 0.07 0.07 0.07 0.07 0.07 0.05 0.04 0.04 0.04 0.06 0.08 0.09 0.09 0.10 0.10 0.11 0.12 0.15 0.16
0.19 0.20 0.26 0.22 0.10 0.08 0.09 0.11 0.11 0.09 0.08 0.08 0.07 0.05 0.04 0.04 0.04 0.05 0.07 0.09 0.09 0.10 0.10 0.11 0.10 0.08 0.07 0.07 0.07 0.07 0.06 0.05 0.05 0.05 0.05 0.07 0.09 0.11 0.12 0.11 0.11 0.12 0.15 0.24
0.14 0.18 0.19 0.13 0.07 0.09 0.09 0.07 0.07 0.06 0.05 0.06 0.06 0.04 0.04 0.04 0.04 0.04 0.05 0.07 0.08 0.10 0.10 0.09 0.10 0.08 0.08 0.08 0.08 0.08 0.06 0.06 0.06 0.05 0.06 0.08 0.10 0.13 0.14 0.13 0.12 0.12 0.13 0.26
0.05 0.08 0.12 0.10 0.07 0.09 0.09 0.07 0.06 0.06 0.06 0.06 0.06 0.05 0.03 0.03 0.03 0.04 0.04 0.06 0.08 0.09 0.09 0.09 0.09 0.09 0.09 0.09 0.10 0.11 0.09 0.07 0.07 0.07 0.08 0.10 0.11 0.13 0.15 0.15 0.15 0.17 0.16 0.19